User: anonymous   Login
Location: ?????
(55.8833°N, 37.6500°E)
Time: 21:54:42
(UTC+00:00)
Language:

Cosmos 1464 Rocket - Orbit

View from above orbital plane
View from above orbital plane
View from above satellite
View from above satellite

Ground track
Ground track

The orbit data is extracted from the following two-line orbital elements,

1 14085U 83048B   20158.56592279 +.00000097 +00000-0 +84098-4 0  9991
2 14085 082.9438 004.1489 0032436 311.8124 048.0263 13.76295146859704
Epoch (UTC): 06 June 2020 13:34:55
Eccentricity: 0.0032436
inclination: 82.9438°
perigee height: 953 km
apogee height: 1001 km
right ascension of ascending node: 4.1489°
argument of perigee: 311.8124°
revolutions per day: 13.76295146
mean anomaly at epoch: 48.0263°
orbit number at epoch: 85970

The dashed part of the orbit path shows where the satellite is in the earth's shadow,  

DLR